Location: Drocourt
(49.0571°N, 1.7669°E)
Time: 14:33:09
(UTC+00:00)

SR - Pass Details

Date: 14 April 2024
Orbit: 579 x 859 km, 66.7° (Epoch: 28 May)

Event Time Altitude Azimuth Distance (km) Brightness Sun altitude
Rises 11:54:12 0° 321° (NW) 3,016 ? 50.6°
Reaches altitude 10° 11:56:37 10° 317° (NW) 2,056 ? 50.6°
Maximum altitude 12:01:06 52° 241° (WSW) 768 ? 50.6°
Drops below altitude 10° 12:05:16 10° 165° (SSE) 1,924 ? 50.6°
Sets 12:07:29 0° 160° (SSE) 2,802 ? 50.5°
